DECAYED

STARLINK-31254, 58892 (Decayed)

Orbit data source: Space-Track

STARLINK-31254, 58892 was a payload satellite owned by SpaceX/Seattle (US) in LEO that was launched on Mon, 29 Jan 2024 UTC via an FALCON 9 launch vehicle from the Air Force Western Test Range (AFWTR). Payload-class satellites include a variety of spacecraft equipped with specific instruments for various scientific and technological missions. These include communications satellites like Starlink; space stations such as the ISS; scientific satellites like the Hubble; Earth observation satellites from companies like Planet Labs, Umbra, and HawkEye 360; GPS; miniature CubeSats for education and research; and military/defense satellites.

Not visible in the next 10 days
Identifier
58892, 2024-020S
Orbit
Decayed
Country
Flag of USUS
Related business
Manufacturer
SpaceX/Seattle
Mission
Decayed Commercial Communications
Bus & Motor
STARLINK V2M, Unknown motor
Mass
730 kg wet, ~700 kg dry
Launch date (UTC)
2024-01-29 (2 years ago)
Launch vehicle
FALCON 9
Launch site
Air Force Western Test Range (AFWTR)
Object type
Payload
Rocket body
Debris
Shape & HBR
Box + 2 Pan, 17.7 m
Radar Cross Section
33.884 m², Large (>1 m²)

Expand to show TLE details & history
Last TLE update: 5 months ago

TLE from 5 months ago
0 STARLINK-31254
1 58892U 24020S   26019.26520628  .14439539  12163-4  30250-2 0  9996
2 58892  53.1213 165.8691 0006377 317.4575  42.5973 16.30152007110861
Epoch: 2026-01-19T06:21Z
TLE epoch observation values (Epoch: 2026-01-19T06:21:53.822Z)
Latitude
-0.00008°
Longitude
-48.26913°
Altitude
189.982 km
Speed
7.795 km/s
True Right ascension
11h 03m 28s
True Declination
0° 00' 00"
Sunlit
Object was in full shadow at epoch
Visualization orbit readout
Latitude
Unknown
Longitude
Unknown
Altitude
Unknown
Speed
Unknown
Apparent Right ascension
Unknown
Apparent Declination
Unknown
Sunlit
N/A
Visualization observer readout
Local Sidereal Time
23:07:49
Azimuth
Unknown
Elevation
Unknown
Doppler factor
Unknown
Orbital elements
Apogee altitude
196.595 km
Perigee altitude
188.215 km
Semi-major axis
6,570.542 km
Eccentricity
0.00064
Inclination
53.1213°
RAAN
165.8691°
Arg. of periapsis
317.4575°
True anomaly
42.64679°
Mean anomaly
42.5973°
Eccentric anomaly
42.62204°
Mean motion
4.07513 °/min
Orbital period
88.34 mins
BSTAR
0.003025
Loading maneuver chart data...
Computing Atmospheric mass density...
Loading historical data...
Loading historical data...
Loading historical data...
Loading historical data...
Loading historical data...
Loading historical data...
Loading historical data...

Documentation

Showing up to 5 results
|